| time (UTC) | temp F | wind direction | speed MPH | gust MPH | rain 1hr in | rain 24hr in | rain mn in | humidity % | barometer mb |
| 20260504043523 | 55 | 343 | 0.0 | 0.0 | 0.00 | 0.00 | 0.00 | 79 | 1015.0 |
| 20260504043032 | 55 | 343 | 0.0 | 0.0 | 0.00 | 0.00 | 0.00 | 79 | 1015.0 |
| 20260504042533 | 55 | 343 | 0.0 | 0.0 | 0.00 | 0.00 | 0.00 | 79 | 1015.0 |
| 20260504042019 | 55 | 343 | 0.0 | 0.0 | 0.00 | 0.00 | 0.00 | 79 | 1015.0 |
| 20260504041521 | 55 | 343 | 0.0 | 0.0 | 0.00 | 0.00 | 0.00 | 79 | 1015.0 |
| 20260504041051 | 55 | 343 | 0.0 | 3.0 | 0.00 | 0.00 | 0.00 | 79 | 1014.9 |
| 20260504040603 | 55 | 343 | 0.0 | 4.0 | 0.00 | 0.00 | 0.00 | 79 | 1014.8 |
| 20260504040027 | 55 | 342 | 1.0 | 5.0 | 0.00 | 0.00 | 0.00 | 79 | 1014.7 |
| 20260504035522 | 55 | 319 | 1.0 | 5.0 | 0.00 | 0.00 | 0.00 | 79 | 1014.8 |
| 20260504035031 | 55 | 315 | 0.0 | 0.0 | 0.00 | 0.00 | 0.00 | 80 | 1014.7 |
| 20260504034533 | 55 | 315 | 0.0 | 4.0 | 0.00 | 0.00 | 0.00 | 79 | 1014.8 |
| 20260504034021 | 55 | 315 | 0.0 | 5.0 | 0.00 | 0.00 | 0.00 | 79 | 1014.7 |
| 20260504033536 | 55 | 314 | 1.0 | 5.0 | 0.00 | 0.00 | 0.00 | 79 | 1014.6 |
| 20260504033049 | 55 | 294 | 0.0 | 1.0 | 0.00 | 0.00 | 0.00 | 79 | 1014.5 |
| 20260504032523 | 55 | 297 | 0.0 | 4.0 | 0.00 | 0.00 | 0.00 | 79 | 1014.6 |
| 20260504032022 | 56 | 296 | 2.0 | 4.0 | 0.00 | 0.00 | 0.00 | 79 | 1014.5 |
| 20260504031535 | 56 | 288 | 0.0 | 2.0 | 0.00 | 0.00 | 0.00 | 78 | 1014.5 |
| 20260504031027 | 56 | 287 | 0.0 | 5.0 | 0.00 | 0.00 | 0.00 | 78 | 1014.3 |
| 20260504030603 | 56 | 288 | 0.0 | 5.0 | 0.00 | 0.00 | 0.00 | 78 | 1014.3 |
| 20260504030028 | 56 | 325 | 0.0 | 4.0 | 0.00 | 0.00 | 0.00 | 77 | 1014.2 |
| 20260504025522 | 56 | 321 | 1.0 | 3.0 | 0.00 | 0.00 | 0.00 | 77 | 1014.1 |
| 20260504025021 | 56 | 339 | 1.0 | 4.0 | 0.00 | 0.00 | 0.00 | 77 | 1014.2 |
| 20260504024523 | 56 | 339 | 1.0 | 5.0 | 0.00 | 0.00 | 0.00 | 77 | 1014.2 |
| 20260504024034 | 56 | 328 | 0.0 | 5.0 | 0.00 | 0.00 | 0.00 | 77 | 1014.2 |
| 20260504023536 | 56 | 328 | 1.0 | 5.0 | 0.00 | 0.00 | 0.00 | 77 | 1014.2 |
| 20260504023023 | 57 | 241 | 0.0 | 5.0 | 0.00 | 0.00 | 0.00 | 77 | 1014.2 |
| 20260504022515 | 57 | 355 | 0.0 | 5.0 | 0.00 | 0.00 | 0.00 | 77 | 1014.2 |
| 20260504022027 | 57 | 9 | 1.0 | 5.0 | 0.00 | 0.00 | 0.00 | 76 | 1014.1 |
| 20260504021601 | 57 | 309 | 1.0 | 5.0 | 0.00 | 0.00 | 0.00 | 76 | 1014.1 |
| 20260504021028 | 57 | 345 | 1.0 | 5.0 | 0.00 | 0.00 | 0.00 | 75 | 1014.1 |
| 20260504020553 | 58 | 39 | 1.0 | 4.0 | 0.00 | 0.00 | 0.00 | 74 | 1014.0 |
| 20260504020031 | 58 | 194 | 1.0 | 10.0 | 0.00 | 0.00 | 0.00 | 72 | 1014.1 |
| 20260504015531 | 58 | 348 | 3.0 | 10.0 | 0.00 | 0.00 | 0.00 | 70 | 1014.1 |
| 20260504015044 | 58 | 323 | 4.0 | 9.0 | 0.00 | 0.00 | 0.00 | 70 | 1014.1 |
| 20260504014524 | 58 | 339 | 2.0 | 5.0 | 0.00 | 0.00 | 0.00 | 69 | 1014.0 |
| 20260504014020 | 59 | 341 | 1.0 | 8.0 | 0.00 | 0.00 | 0.00 | 69 | 1013.8 |
| 20260504013517 | 59 | 224 | 0.0 | 8.0 | 0.00 | 0.00 | 0.00 | 69 | 1013.9 |
| 20260504013028 | 59 | 349 | 3.0 | 9.0 | 0.00 | 0.00 | 0.00 | 67 | 1013.8 |
| 20260504012525 | 59 | 5 | 2.0 | 8.0 | 0.00 | 0.00 | 0.00 | 67 | 1013.8 |
| 20260504012015 | 60 | 340 | 1.0 | 8.0 | 0.00 | 0.00 | 0.00 | 66 | 1013.8 |
| 20260504011533 | 60 | 232 | 1.0 | 6.0 | 0.00 | 0.00 | 0.00 | 66 | 1013.8 |
| 20260504011022 | 60 | 329 | 1.0 | 6.0 | 0.00 | 0.00 | 0.00 | 65 | 1013.6 |
| 20260504010542 | 60 | 346 | 1.0 | 5.0 | 0.00 | 0.00 | 0.00 | 65 | 1013.9 |
| 20260504010017 | 61 | 318 | 0.0 | 5.0 | 0.00 | 0.00 | 0.00 | 65 | 1013.9 |
| 20260504005518 | 61 | 347 | 1.0 | 6.0 | 0.00 | 0.00 | 0.00 | 64 | 1013.6 |
| 20260504005016 | 61 | 337 | 0.0 | 6.0 | 0.00 | 0.00 | 0.00 | 65 | 1013.4 |
| 20260504004538 | 61 | 333 | 2.0 | 6.0 | 0.00 | 0.00 | 0.00 | 64 | 1013.4 |
| 20260504004043 | 62 | 339 | 0.0 | 5.0 | 0.00 | 0.00 | 0.00 | 64 | 1013.2 |
| 20260504003524 | 62 | 341 | 1.0 | 5.0 | 0.00 | 0.00 | 0.00 | 64 | 1013.2 |
| 20260504003023 | 62 | 333 | 0.0 | 5.0 | 0.00 | 0.00 | 0.00 | 64 | 1013.2 |
| 20260504002518 | 63 | 315 | 0.0 | 3.0 | 0.00 | 0.00 | 0.00 | 64 | 1013.2 |
| 20260504002030 | 63 | 263 | 0.0 | 4.0 | 0.00 | 0.00 | 0.00 | 65 | 1013.4 |
| 20260504001551 | 63 | 175 | 1.0 | 4.0 | 0.00 | 0.00 | 0.00 | 65 | 1013.4 |
| 20260504001018 | 63 | 191 | 1.0 | 3.0 | 0.00 | 0.00 | 0.00 | 66 | 1013.2 |
| 20260504000542 | 63 | 234 | 0.0 | 4.0 | 0.00 | 0.00 | 0.00 | 65 | 1013.2 |
| 20260504000029 | 63 | 329 | 0.0 | 5.0 | 0.00 | 0.00 | 0.00 | 64 | 1013.1 |
| 20260503235533 | 63 | 209 | 0.0 | 4.0 | 0.00 | 0.00 | 0.00 | 63 | 1013.1 |
| 20260503235044 | 63 | 211 | 1.0 | 4.0 | 0.00 | 0.00 | 0.00 | 63 | 1013.2 |
| 20260503234540 | 63 | 252 | 0.0 | 4.0 | 0.00 | 0.00 | 0.00 | 64 | 1013.2 |
| 20260503234052 | 64 | 287 | 0.0 | 0.0 | 0.00 | 0.00 | 0.00 | 65 | 1013.1 |
| 20260503233532 | 64 | 181 | 0.0 | 0.0 | 0.00 | 0.00 | 0.00 | 63 | 1013.0 |
| 20260503233044 | 64 | 180 | 0.0 | 4.0 | 0.00 | 0.00 | 0.00 | 63 | 1013.1 |
| 20260503232523 | 63 | 232 | 0.0 | 4.0 | 0.00 | 0.00 | 0.00 | 65 | 1013.4 |
| 20260503232031 | 63 | 226 | 0.0 | 5.0 | 0.00 | 0.00 | 0.00 | 66 | 1013.3 |
| 20260503231552 | 63 | 227 | 0.0 | 5.0 | 0.00 | 0.00 | 0.00 | 66 | 1013.4 |
| 20260503231024 | 62 | 263 | 0.0 | 7.0 | 0.00 | 0.00 | 0.00 | 66 | 1013.4 |
| 20260503230550 | 62 | 240 | 1.0 | 7.0 | 0.00 | 0.00 | 0.00 | 67 | 1013.6 |
| 20260503230018 | 61 | 198 | 3.0 | 7.0 | 0.00 | 0.00 | 0.00 | 68 | 1013.7 |
| 20260503225535 | 61 | 303 | 0.0 | 3.0 | 0.00 | 0.00 | 0.00 | 67 | 1013.6 |
| 20260503225014 | 61 | 300 | 0.0 | 1.0 | 0.00 | 0.00 | 0.00 | 68 | 1013.6 |
| 20260503224517 | 61 | 315 | 0.0 | 2.0 | 0.00 | 0.00 | 0.00 | 67 | 1013.7 |
| 20260503224029 | 61 | 340 | 0.0 | 6.0 | 0.00 | 0.00 | 0.00 | 67 | 1013.9 |
| 20260503223531 | 62 | 340 | 0.0 | 6.0 | 0.00 | 0.00 | 0.00 | 66 | 1013.8 |
| 20260503223025 | 62 | 355 | 0.0 | 1.0 | 0.00 | 0.00 | 0.00 | 67 | 1013.9 |
| 20260503222523 | 62 | 201 | 0.0 | 1.0 | 0.00 | 0.00 | 0.00 | 67 | 1014.0 |
| 20260503222022 | 62 | 208 | 0.0 | 6.0 | 0.00 | 0.00 | 0.00 | 67 | 1014.0 |
| 20260503221516 | 62 | 223 | 1.0 | 7.0 | 0.00 | 0.00 | 0.00 | 66 | 1014.0 |
| 20260503221034 | 62 | 228 | 0.0 | 7.0 | 0.00 | 0.00 | 0.00 | 67 | 1014.1 |
| 20260503220556 | 62 | 336 | 1.0 | 6.0 | 0.00 | 0.00 | 0.00 | 67 | 1014.1 |
| 20260503220037 | 62 | 300 | 0.0 | 5.0 | 0.00 | 0.00 | 0.00 | 66 | 1014.1 |
| 20260503215518 | 62 | 266 | 0.0 | 5.0 | 0.00 | 0.00 | 0.00 | 67 | 1014.1 |
| 20260503215028 | 62 | 276 | 0.0 | 6.0 | 0.00 | 0.00 | 0.00 | 67 | 1014.2 |
| 20260503214530 | 62 | 221 | 0.0 | 6.0 | 0.00 | 0.00 | 0.00 | 67 | 1014.2 |
| 20260503214021 | 62 | 296 | 0.0 | 5.0 | 0.00 | 0.00 | 0.00 | 67 | 1014.2 |
| 20260503213523 | 61 | 221 | 0.0 | 10.0 | 0.00 | 0.00 | 0.00 | 68 | 1014.2 |
| 20260503213013 | 61 | 278 | 1.0 | 10.0 | 0.00 | 0.00 | 0.00 | 68 | 1014.2 |
| 20260503212600 | 61 | 217 | 1.0 | 6.0 | 0.00 | 0.00 | 0.00 | 67 | 1014.2 |
| 20260503212030 | 61 | 303 | 0.0 | 3.0 | 0.00 | 0.00 | 0.00 | 68 | 1014.2 |
| 20260503211532 | 61 | 209 | 1.0 | 9.0 | 0.00 | 0.00 | 0.00 | 69 | 1014.2 |
| 20260503211023 | 61 | 343 | 0.0 | 4.0 | 0.00 | 0.00 | 0.00 | 70 | 1014.3 |
| 20260503210548 | 60 | 355 | 0.0 | 3.0 | 0.00 | 0.00 | 0.00 | 70 | 1014.3 |
| 20260503210030 | 60 | 147 | 0.0 | 3.0 | 0.00 | 0.00 | 0.00 | 71 | 1014.3 |
| 20260503205532 | 60 | 307 | 0.0 | 4.0 | 0.00 | 0.00 | 0.00 | 72 | 1014.3 |
| 20260503205021 | 60 | 309 | 0.0 | 4.0 | 0.00 | 0.00 | 0.00 | 71 | 1014.4 |
| 20260503204523 | 60 | 300 | 0.0 | 3.0 | 0.00 | 0.00 | 0.00 | 72 | 1014.3 |
| 20260503204021 | 60 | 342 | 0.0 | 1.0 | 0.00 | 0.00 | 0.00 | 72 | 1014.4 |
| 20260503203522 | 60 | 263 | 0.0 | 4.0 | 0.00 | 0.00 | 0.00 | 72 | 1014.3 |
| 20260503203018 | 61 | 315 | 0.0 | 4.0 | 0.00 | 0.00 | 0.00 | 71 | 1014.2 |
| 20260503202514 | 61 | 317 | 0.0 | 4.0 | 0.00 | 0.00 | 0.00 | 71 | 1014.3 |
| 20260503202012 | 61 | 277 | 0.0 | 2.0 | 0.00 | 0.00 | 0.00 | 70 | 1014.3 |
| 20260503201555 | 61 | 279 | 0.0 | 2.0 | 0.00 | 0.00 | 0.00 | 70 | 1014.3 |
| 20260503201026 | 62 | 188 | 0.0 | 5.0 | 0.00 | 0.00 | 0.00 | 70 | 1014.3 |
| 20260503200546 | 62 | 342 | 1.0 | 7.0 | 0.00 | 0.00 | 0.00 | 70 | 1014.2 |
| 20260503200032 | 62 | 224 | 1.0 | 7.0 | 0.00 | 0.00 | 0.00 | 69 | 1014.4 |
| 20260503195554 | 62 | 297 | 0.0 | 3.0 | 0.00 | 0.00 | 0.00 | 68 | 1014.3 |
| 20260503195044 | 63 | 215 | 0.0 | 4.0 | 0.00 | 0.00 | 0.00 | 66 | 1014.3 |
| 20260503194523 | 63 | 215 | 1.0 | 4.0 | 0.00 | 0.00 | 0.00 | 63 | 1014.4 |
| 20260503194029 | 63 | 149 | 0.0 | 8.0 | 0.00 | 0.00 | 0.00 | 65 | 1014.4 |
| 20260503193531 | 63 | 250 | 3.0 | 8.0 | 0.00 | 0.00 | 0.00 | 64 | 1014.4 |
| 20260503193020 | 62 | 173 | 0.0 | 5.0 | 0.00 | 0.00 | 0.00 | 65 | 1014.4 |
| 20260503192523 | 62 | 151 | 1.0 | 5.0 | 0.00 | 0.00 | 0.00 | 65 | 1014.5 |
| 20260503192021 | 62 | 215 | 1.0 | 4.0 | 0.00 | 0.00 | 0.00 | 65 | 1014.4 |
| 20260503191523 | 62 | 221 | 0.0 | 5.0 | 0.00 | 0.00 | 0.00 | 65 | 1014.4 |
| 20260503191030 | 62 | 221 | 0.0 | 5.0 | 0.00 | 0.00 | 0.00 | 65 | 1014.6 |
| 20260503190600 | 62 | 225 | 0.0 | 8.0 | 0.00 | 0.00 | 0.00 | 65 | 1014.6 |
| 20260503190038 | 62 | 209 | 3.0 | 8.0 | 0.00 | 0.00 | 0.00 | 65 | 1014.6 |
| 20260503185518 | 62 | 186 | 1.0 | 4.0 | 0.00 | 0.00 | 0.00 | 66 | 1014.6 |
| 20260503185056 | 62 | 189 | 0.0 | 5.0 | 0.00 | 0.00 | 0.00 | 66 | 1014.6 |
| 20260503184527 | 62 | 255 | 1.0 | 5.0 | 0.00 | 0.00 | 0.00 | 67 | 1014.7 |
| 20260503184023 | 61 | 192 | 2.0 | 5.0 | 0.00 | 0.00 | 0.00 | 67 | 1014.6 |
| 20260503183545 | 61 | 226 | 1.0 | 8.0 | 0.00 | 0.00 | 0.00 | 67 | 1014.7 |
| 20260503183015 | 61 | 225 | 4.0 | 8.0 | 0.00 | 0.00 | 0.00 | 67 | 1014.7 |
| 20260503182535 | 61 | 202 | 1.0 | 7.0 | 0.00 | 0.00 | 0.00 | 68 | 1014.8 |
| 20260503182022 | 61 | 194 | 2.0 | 4.0 | 0.00 | 0.00 | 0.00 | 71 | 1014.9 |
| 20260503181521 | 60 | 214 | 0.0 | 5.0 | 0.00 | 0.00 | 0.00 | 72 | 1014.9 |
| 20260503181024 | 60 | 209 | 3.0 | 6.0 | 0.00 | 0.00 | 0.00 | 73 | 1014.9 |
| 20260503180547 | 59 | 225 | 2.0 | 6.0 | 0.00 | 0.00 | 0.00 | 74 | 1014.8 |
| 20260503180022 | 59 | 187 | 1.0 | 4.0 | 0.00 | 0.00 | 0.00 | 76 | 1015.0 |
| 20260503175521 | 58 | 183 | 0.0 | 0.0 | 0.00 | 0.00 | 0.00 | 78 | 1015.0 |
| 20260503175056 | 58 | 184 | 0.0 | 0.0 | 0.00 | 0.00 | 0.00 | 78 | 1015.0 |
| 20260503174600 | 58 | 184 | 0.0 | 2.0 | 0.00 | 0.00 | 0.00 | 79 | 1015.0 |
| 20260503174032 | 58 | 184 | 1.0 | 2.0 | 0.00 | 0.00 | 0.00 | 79 | 1015.0 |
| 20260503173534 | 58 | 184 | 0.0 | 2.0 | 0.00 | 0.00 | 0.00 | 78 | 1015.0 |
| 20260503173024 | 58 | 183 | 0.0 | 2.0 | 0.00 | 0.00 | 0.00 | 79 | 1015.0 |
| 20260503172518 | 57 | 196 | 0.0 | 0.0 | 0.00 | 0.00 | 0.00 | 79 | 1015.0 |
| 20260503172030 | 57 | 196 | 0.0 | 0.0 | 0.00 | 0.00 | 0.00 | 79 | 1015.1 |
| 20260503171533 | 57 | 196 | 0.0 | 0.0 | 0.00 | 0.00 | 0.00 | 79 | 1015.0 |
| 20260503171024 | 57 | 196 | 0.0 | 0.0 | 0.00 | 0.00 | 0.00 | 78 | 1015.1 |
| 20260503170559 | 57 | 196 | 0.0 | 0.0 | 0.00 | 0.00 | 0.00 | 77 | 1015.1 |
| 20260503150559 | 55 | 182 | 0.0 | 3.0 | 0.00 | 0.00 | 0.00 | 81 | 1014.3 |
| 20260503131031 | 54 | 172 | 0.0 | 0.0 | 0.00 | 0.00 | 0.00 | 85 | 1013.1 |
| 20260503130556 | 54 | 172 | 0.0 | 0.0 | 0.00 | 0.00 | 0.00 | 86 | 1013.1 |
| 20260503110556 | 55 | 290 | 0.0 | 0.0 | 0.00 | 0.01 | 0.00 | 91 | 1013.2 |
| 20260503081522 | 56 | 286 | 0.0 | 0.0 | 0.00 | 0.01 | 0.00 | 89 | 1013.6 |
| 20260503081031 | 56 | 286 | 0.0 | 0.0 | 0.00 | 0.01 | 0.00 | 89 | 1013.5 |
| 20260503080625 | 56 | 286 | 0.0 | 3.0 | 0.00 | 0.01 | 0.00 | 89 | 1013.6 |
| 20260503072534 | 57 | 278 | 0.0 | 1.0 | 0.00 | 0.01 | 0.00 | 89 | 1013.4 |
| 20260503072021 | 57 | 277 | 0.0 | 0.0 | 0.00 | 0.01 | 0.00 | 89 | 1013.4 |
| 20260503071518 | 57 | 277 | 0.0 | 0.0 | 0.00 | 0.01 | 0.00 | 89 | 1013.2 |
| 20260503071017 | 57 | 277 | 0.0 | 0.0 | 0.00 | 0.01 | 0.00 | 89 | 1013.2 |
| 20260503070610 | 57 | 277 | 0.0 | 0.0 | 0.00 | 0.01 | 0.00 | 89 | 1013.0 |
| 20260503055024 | 56 | 277 | 0.0 | 0.0 | 0.00 | 0.01 | 0.01 | 88 | 1013.1 |
| 20260503054524 | 56 | 277 | 0.0 | 0.0 | 0.00 | 0.01 | 0.01 | 88 | 1013.1 |
| 20260503054019 | 56 | 277 | 0.0 | 0.0 | 0.00 | 0.01 | 0.01 | 88 | 1013.0 |
| 20260503053543 | 56 | 277 | 0.0 | 0.0 | 0.00 | 0.01 | 0.01 | 88 | 1013.0 |
| 20260503053031 | 56 | 277 | 0.0 | 0.0 | 0.00 | 0.01 | 0.01 | 87 | 1013.0 |
| 20260503052531 | 55 | 277 | 0.0 | 0.0 | 0.00 | 0.01 | 0.01 | 87 | 1013.0 |
| 20260503052025 | 55 | 277 | 0.0 | 0.0 | 0.00 | 0.01 | 0.01 | 86 | 1013.0 |
| 20260503051522 | 55 | 277 | 0.0 | 0.0 | 0.00 | 0.01 | 0.01 | 86 | 1013.1 |
| 20260503051017 | 55 | 277 | 0.0 | 0.0 | 0.00 | 0.01 | 0.01 | 85 | 1012.9 |
| 20260503050612 | 55 | 277 | 0.0 | 0.0 | 0.00 | 0.01 | 0.01 | 85 | 1013.0 |
| 20260503050024 | 56 | 277 | 0.0 | 0.0 | 0.00 | 0.01 | 0.01 | 85 | 1012.9 |
| 20260503045524 | 56 | 277 | 0.0 | 0.0 | 0.00 | 0.01 | 0.01 | 84 | 1012.8 |
| 20260503045023 | 56 | 277 | 0.0 | 0.0 | 0.00 | 0.01 | 0.01 | 84 | 1012.8 |
| 20260503044524 | 56 | 277 | 0.0 | 0.0 | 0.00 | 0.01 | 0.01 | 84 | 1012.7 |
| 20260503044017 | 57 | 277 | 0.0 | 0.0 | 0.00 | 0.01 | 0.01 | 84 | 1012.7 |